Regional Weather Roundup
Issued by NWS

Home | Current Version | Previous Version | Graphics & Text | Print | Product List | Glossary On
Versions: 1 2 3 4 5 6 7 8 9 10 11 12 13 14 15 16 17 18 19 20 21 22 23 24 25 26 27
000
ASUS45 KCYS 150510
RWRWY

WYOMING REGIONAL WEATHER ROUNDUP
NATIONAL WEATHER SERVICE CHEYENNE WY
1100 PM MDT MON APR 14 2014

NOTE:  "FAIR" INDICATES FEW OR NO CLOUDS BELOW 12,000 FEET
WITH NO SIGNIFICANT WEATHER AND/OR OBSTRUCTIONS TO VISIBILITY.

WYZ001-150600-
YELLOWSTONE NATIONAL PARK

CITY           SKY/WX    TMP DP  RH WIND       PRES   REMARKS
LK YELLOWSTONE   N/A     19   9  65 CALM      30.13F
W YELLOWSTONE  NOT AVBL

$$
WYZ002>013-054>058-071-098>099-150600-
NORTHERN WYOMING

CITY           SKY/WX    TMP DP  RH WIND       PRES   REMARKS
JACKSON        PTCLDY    34  10  37 SE3       30.13F
CODY           CLEAR     45  12  26 NW12G18   29.97F
GREYBULL       CLEAR     34  24  67 SE3       30.02F
WORLAND        CLEAR     34  22  61 SE12      30.01F WCI  25
SHERIDAN       PTCLDY    34  24  67 S7        29.92F WCI  28
BUFFALO        PTCLDY    33  18  53 S6        29.97F WCI  28
GILLETTE       CLEAR     34  19  54 SW17      29.97F WCI  23
HULETT         FAIR      32  18  55 S5        29.99  WCI  27
NEWCASTLE      FAIR      30  19  64 NE3       30.03

$$
WYZ014>020-022>026-101>103-150600-
CENTRAL WYOMING

CITY           SKY/WX    TMP DP  RH WIND       PRES   REMARKS
BIG PINEY      CLEAR     28  14  55 CALM      30.17S
PINEDALE       CLEAR     23  18  80 W3        30.18S
DUBOIS         FAIR      32   7  34 NW14G24   30.08S WCI  22
LANDER         CLEAR     37  16  42 CALM      30.04F
RIVERTON       CLEAR     34  13  41 SW9       30.05F WCI  27
CASPER         PTCLDY    33  20  58 SW10      30.03F WCI  25
DOUGLAS        PTCLDY    26  19  74 SE7       30.05F WCI  18

$$
WYZ021-027>030-104>119-150600-
SOUTHERN WYOMING

CITY           SKY/WX    TMP DP  RH WIND       PRES   REMARKS
EVANSTON       PTCLDY    30   8  39 SW12      30.20F WCI  20
KEMMERER       PTCLDY    32  12  43 S3        30.19F
FORT BRIDGER   FAIR      33  12  42 W12       30.22S WCI  24
ROCK SPRINGS   CLEAR     38   6  26 W15       30.16S WCI  29
DIXON          FAIR      29  20  71 NE5       30.23S WCI  24
RAWLINS        CLEAR     31  17  56 SW13      30.13S WCI  21
SARATOGA       FAIR      27  19  74 S6        30.16R WCI  20
LARAMIE        CLEAR     25  15  66 SW18      30.09F WCI  11
CHEYENNE       CLEAR     28  17  63 SW16      30.08F WCI  16
TORRINGTON     CLEAR     27  21  78 E7        30.08F WCI  19
PINE BLUFFS    FAIR      30  23  74 SW12      30.11F WCI  21

$$



USA.gov is the U.S. government's official web portal to all federal, state and local government web resources and services.